Location: ??????????
(54.8537°N, 38.8755°E)
Time: 20:56:06
(UTC+00:00)

Tiros 1 despin weight - Pass Details

Date: 21 September 2024
Orbit: 572 x 613 km, 48.2° (Epoch: 13 October)

Event Time Altitude Azimuth Distance (km) Brightness Sun altitude
Exits shadow 00:03:18 25° 131° (SE) 1,241 ? -25.4°
Drops below altitude 10° 00:05:42 10° 107° (ESE) 1,975 ? -25.1°
Sets 00:08:10 0° 98° (E) 2,883 ? -24.8°
